De Kalb, MO (64440)

4:26 AM CDT on April 19, 2015 (GMT -0500)
APRSWXNET | | Change Station
CLOSE
Current Station
Personal Weather Station
Location: Rushville, MO
Elevation: 794 ft
Nearby Weather Stations

Elev 794 ft 39.66 °N, 95.01 °W | Updated 28 minutes ago

Overcast
Overcast
56 °F
Feels Like 56 °F
N
0
Wind Variable Wind from SSE
Gusts 0.0 mph

Today
High -- | Low -- °F
--% Chance of Precip.
Yesterday
High -- | Low -- °F
Precip. -- in
6:36 AM 8:01 PM
New Moon, 1% visible
Pressure 29.74 in
Visibility 7.0 miles
Clouds Overcast 3000 ft
Dew Point 54 °F
Humidity 94%
Rainfall in
Snow Depth Not available.
UV 0 out of 12
Pollen 2.90 out of 12
Air Quality Not available.
Flu Activity Local Activity
SPECI KSTJ 190904Z AUTO 14003KT 7SM OVC030 15/14 A2974 RMK AO2 T01500144

More Conditions Fewer Conditions

Pressure 29.74 in
Visibility 7.0 miles
Clouds Overcast 3000 ft
Dew Point 54 °F
Humidity 94%
Rainfall in
Snow Depth Not available.
UV 0 out of 12
Pollen 2.90 out of 12
Air Quality Not available.
Flu Activity Local Activity
SPECI KSTJ 190904Z AUTO 14003KT 7SM OVC030 15/14 A2974 RMK AO2 T01500144

More Conditions Fewer Conditions

10-Day Weather Forecast

Almanac

Astronomy

Apr. 19, 2015 Rise Set
Actual Time
Civil Twilight
Nautical Twilight
Astronomical Twilight
Moon
Length of Visible Light
Length of Day
Tomorrow will be .
, % of the Moon is Illuminated

Today's Extremes

State Highs State Lows

Community

WunderPhotos

Upload Photos

1,814,753 photos uploaded!

WunderBlogs® & News

Nearby

Air Quality

  Air Quality AQ Index Pollutant
Not available.

Snow Depth

Station Depth Elevation

Earthquake Activity

City Distance Mag. Time & Date
Minimum magnitude displayed is 2.5.

Coastal Water Temperatures

Place Temperature

Stations

Nearby Weather Stations

Station Location Temp. Windchill Dew Point Humidity Wind Precip. Elev Updated Type